Theta_e
320 320 319 318 318 317 317 316 316 315 315 314 314 314 312 312 315 324 322 319 325 320 325 322 323 323 323 326 326 325 326 327 326 326 327 325 326 326 326 325 324 325 324 326 329
321 321 320 320 320 319 319 318 314 311 311 312 313 313 311 311 322 322 320 318 319 318 322 320 323 323 324 324 326 326 327 325 324 324 324 325 325 325 325 325 325 325 325 324 323
322 322 321 321 321 320 319 317 312 312 312 313 313 311 310 312 324 323 319 319 318 321 319 320 322 322 323 324 325 326 326 326 323 323 323 325 325 324 325 324 324 324 324 323 323
323 322 321 321 320 319 319 314 314 313 312 312 312 310 310 322 326 322 319 318 319 328 322 321 322 323 324 324 324 325 325 325 325 325 325 325 324 323 323 324 323 322 322 321 322
322 322 321 320 319 318 318 314 313 312 309 310 310 310 318 322 321 325 321 319 328 321 322 322 322 323 324 325 324 325 325 324 323 323 323 322 322 323 323 323 322 321 321 322 322
320 320 320 317 316 318 317 314 312 310 310 312 310 311 321 322 321 323 320 319 321 321 320 321 322 323 323 323 323 323 323 322 322 322 322 322 323 322 322 321 321 321 322 322 322
318 318 317 317 316 317 317 315 313 309 311 312 312 317 319 319 317 322 321 320 320 319 320 319 320 322 323 323 323 322 323 323 324 323 322 321 322 322 322 321 321 322 322 322 322
318 318 317 316 317 317 317 315 313 309 309 312 314 320 320 317 318 316 317 318 319 321 321 321 320 322 323 323 323 324 324 325 323 321 321 320 323 323 321 321 321 321 322 322 322
316 316 317 315 316 317 317 312 311 308 309 312 324 323 323 317 317 314 316 318 320 321 323 321 321 323 324 324 325 325 326 326 325 322 321 321 323 322 322 321 322 322 322 322 322
317 317 317 315 315 316 316 314 312 310 313 316 319 323 319 318 313 312 315 314 319 323 324 324 324 325 325 325 328 326 325 324 324 323 322 322 323 323 322 323 322 322 322 322 322
320 318 316 314 315 314 313 317 318 319 314 314 313 313 314 313 312 315 315 316 318 322 325 326 328 328 326 325 325 325 324 324 323 323 323 323 323 323 322 322 322 322 322 322 322
319 317 317 313 314 312 313 313 308 308 313 313 312 312 312 310 314 315 313 316 318 321 321 323 326 324 323 322 322 322 323 324 323 322 322 323 323 322 321 321 322 322 321 320 320
320 318 317 312 316 315 311 309 307 307 315 316 314 315 314 313 318 317 315 317 319 320 320 322 322 320 320 321 322 322 323 322 322 321 321 322 323 322 322 322 320 318 316 315 316
320 318 316 313 318 316 313 310 310 309 322 319 317 317 317 316 317 312 313 317 318 319 319 319 320 320 320 320 320 321 320 320 321 321 322 320 323 321 322 323 319 316 314 313 313
319 316 314 313 315 317 312 313 308 312 328 317 316 314 313 314 314 314 310 315 318 317 318 318 318 319 320 319 318 319 318 319 319 319 319 319 320 320 319 321 318 313 311 310 310
315 313 311 318 316 314 314 313 309 323 327 317 314 314 313 312 313 311 312 312 314 315 316 317 317 314 316 314 314 316 316 316 317 317 320 318 319 318 318 320 315 311 309 308 307
312 311 313 313 316 313 316 314 322 325 319 317 315 314 314 315 314 312 312 313 314 315 315 315 315 315 310 312 313 313 314 318 318 320 319 317 319 319 315 313 311 309 308 306 305
310 312 317 315 314 315 316 318 322 321 320 317 315 314 314 313 313 311 311 313 313 313 314 314 314 313 309 310 311 312 313 317 320 320 321 317 321 320 310 308 308 307 305 304 304
309 316 316 313 312 316 317 319 319 319 315 314 313 313 314 311 310 312 313 314 313 313 313 313 312 310 307 305 306 311 312 312 312 313 316 316 316 314 309 308 308 305 303 303 303
314 314 315 310 313 316 316 317 316 314 313 313 312 312 313 314 314 314 313 312 312 309 308 310 312 311 308 305 306 304 308 309 311 317 317 314 315 317 314 312 304 302 303 303 303
314 314 309 310 309 314 316 315 315 313 312 312 312 313 313 313 313 313 312 312 310 309 307 308 309 310 308 309 309 307 306 306 306 308 318 319 314 312 306 302 301 302 303 304 305
314 315 309 309 313 313 314 313 308 311 311 311 311 312 312 312 312 312 312 311 306 306 308 308 309 309 309 308 304 303 304 305 311 315 313 314 311 307 301 301 302 303 304 305 306
314 313 308 308 316 314 313 311 310 311 311 310 311 311 310 311 314 311 310 309 306 306 308 308 307 310 308 308 304 303 304 305 307 309 310 312 310 303 301 301 303 304 305 305 305
314 317 310 306 309 312 312 311 311 309 309 309 310 310 311 312 311 313 311 309 307 305 306 305 307 308 310 309 306 305 304 303 304 306 307 307 305 304 300 301 303 304 304 305 305
313 313 308 313 311 311 308 309 310 312 309 308 310 310 310 312 309 308 308 307 307 307 305 305 307 307 307 306 306 307 304 303 304 302 303 303 301 299 299 301 303 303 304 304 303
312 310 307 305 303 307 305 307 308 307 308 307 309 307 306 308 307 307 307 306 307 306 306 305 307 306 305 304 303 301 300 300 300 300 301 300 299 299 301 302 303 303 303 303 303
306 306 307 306 306 306 306 305 304 304 304 304 305 306 306 306 305 305 304 304 305 306 307 306 305 306 304 300 297 298 298 298 298 298 299 299 300 300 301 302 302 303 304 303 303
Wind_Speed
20 19 20 21 22 23 24 25 26 25 23 22 23 23 21 19 17 6 5 3 1 4 5 2 3 2 3 1 2 2 4 7 4 5 4 2 5 4 4 9 2 5 8 7 6
22 22 21 22 23 24 25 26 26 25 23 23 24 22 18 16 12 6 2 2 6 5 2 4 3 4 3 2 2 5 5 6 5 3 5 4 6 9 9 8 7 11 9 5 7
21 22 23 24 25 26 26 27 27 27 27 24 21 17 15 10 8 6 2 2 3 2 3 4 4 5 6 3 5 3 6 6 4 5 5 9 9 9 9 11 8 9 12 14 15
20 23 24 24 25 26 27 27 28 32 25 19 14 12 9 4 3 4 2 1 1 3 3 2 4 4 5 5 0 7 6 8 7 4 8 11 13 13 13 13 10 8 11 12 14
18 22 23 24 26 27 27 28 31 27 18 13 11 6 3 5 4 2 4 3 2 3 5 4 7 5 8 4 4 11 8 6 8 9 11 12 15 15 16 15 7 7 7 8 8
19 22 21 24 26 26 26 29 34 17 13 11 7 3 5 5 4 2 3 2 0 3 2 5 4 5 8 7 7 7 10 14 14 14 13 14 15 8 7 3 7 8 9 10 5
19 20 21 23 25 27 26 30 32 12 10 7 4 2 5 4 1 1 1 0 0 2 3 4 5 7 4 8 2 9 13 14 17 10 4 3 13 15 13 7 10 10 12 9 3
18 19 21 24 27 28 28 31 20 11 6 8 4 4 2 1 1 1 2 2 2 2 3 4 5 8 8 6 12 14 13 12 8 4 5 5 15 7 5 10 11 13 14 12 8
18 20 22 25 27 27 29 28 13 7 9 6 3 5 5 2 2 2 2 3 2 3 1 2 6 8 4 10 11 13 11 12 12 1 7 10 14 7 8 13 17 14 10 7 6
19 21 22 25 26 26 27 18 10 5 9 2 2 5 3 3 4 5 3 2 4 4 5 6 5 7 8 8 11 16 18 20 18 12 11 17 22 19 18 16 15 13 4 4 5
17 20 23 25 22 23 26 8 7 4 13 5 10 5 4 11 9 3 2 4 6 8 11 8 8 11 13 13 15 17 19 22 20 16 18 19 22 17 16 15 14 11 4 2 4
17 20 22 23 15 19 14 7 6 5 9 2 3 4 4 3 2 3 4 4 5 10 12 8 14 9 11 10 14 17 19 21 19 14 7 16 19 20 21 17 1 1 1 5 7
17 20 21 22 9 11 11 8 6 3 6 2 0 2 2 3 2 3 3 1 7 11 10 13 15 2 7 10 13 15 17 19 20 19 19 21 25 21 8 9 9 6 3 6 8
17 18 20 18 4 11 4 9 9 2 5 5 3 3 3 3 3 1 0 2 4 8 7 11 8 8 11 15 15 19 16 18 16 16 17 17 19 16 8 14 10 6 4 6 7
17 18 18 13 10 7 9 13 7 4 6 3 4 3 2 5 4 4 1 4 9 13 5 14 10 13 16 17 14 20 13 14 17 19 20 25 15 17 19 11 15 7 6 7 9
16 16 15 9 7 8 13 14 6 5 4 3 2 2 4 3 2 4 4 5 6 10 15 20 16 6 14 13 12 15 17 20 21 18 17 23 21 20 20 7 13 9 6 8 11
13 14 9 7 8 13 15 10 6 5 4 4 2 3 7 13 11 6 11 12 10 15 17 19 19 15 2 14 15 14 14 13 15 14 18 21 16 13 14 12 10 7 6 8 11
11 9 6 4 9 11 11 8 6 1 7 5 3 11 15 11 10 6 8 12 14 11 16 17 22 10 8 5 10 16 17 13 21 17 17 20 8 1 12 11 9 6 7 10 12
8 3 4 4 6 5 6 5 6 8 5 9 15 17 13 3 5 10 15 14 12 12 12 16 21 6 3 4 3 14 16 13 17 20 17 17 17 6 9 8 6 6 9 11 13
6 6 1 6 3 5 5 8 8 7 9 9 11 9 14 11 13 11 12 10 9 4 7 11 22 15 5 6 10 11 11 9 8 6 14 13 19 2 6 3 5 10 12 13 14
6 4 6 1 1 4 5 5 4 6 7 6 11 16 17 18 16 17 14 16 9 8 5 10 11 17 8 11 15 9 10 12 10 10 5 5 1 8 5 5 11 12 13 14 14
4 4 3 1 5 2 5 3 2 6 7 10 9 12 14 16 18 17 17 13 5 7 11 15 6 13 21 14 5 8 11 8 4 5 5 4 8 7 3 12 13 14 15 15 15
3 2 2 4 3 4 7 6 7 12 12 6 6 11 17 13 7 9 9 4 8 7 5 5 6 8 12 6 4 7 10 8 2 3 11 7 5 6 13 13 14 15 17 15 15
3 2 2 3 4 6 6 7 9 3 7 5 9 11 10 8 9 5 11 7 5 7 6 5 13 17 15 17 2 6 7 8 13 9 10 13 17 14 13 14 14 16 16 16 15
1 1 3 1 3 6 4 3 4 4 3 4 3 10 13 5 12 16 13 11 10 7 6 2 9 16 19 18 16 13 17 15 14 18 16 15 13 10 11 12 14 15 15 16 16
2 1 1 2 2 1 3 4 8 10 7 9 11 14 14 13 14 20 17 14 11 3 6 5 11 12 17 15 14 15 17 18 18 17 19 18 17 14 6 10 12 13 13 14 13
1 1 2 5 3 4 8 9 8 9 9 13 14 14 15 14 12 13 14 16 14 14 5 4 5 3 9 4 7 12 17 17 15 15 12 14 15 7 9 11 11 10 12 13 12
Wind_Direction
6 5 3 0 358 356 353 349 344 339 335 331 329 330 328 328 331 298 305 46 92 153 136 166 211 209 234 205 276 281 262 275 288 288 18 345 313 144 341 282 286 304 297 3 3
4 2 358 356 354 352 350 346 342 340 335 328 325 325 325 327 315 280 55 92 136 120 201 214 210 209 226 253 226 255 264 311 22 352 295 307 289 310 296 282 270 272 255 260 293
352 354 352 352 349 347 347 344 341 337 329 322 320 323 321 330 277 68 124 99 146 165 288 279 281 262 264 257 209 183 260 22 283 300 284 287 284 292 280 277 283 302 311 303 296
342 345 346 346 346 346 346 344 340 336 329 323 322 323 315 290 349 74 98 89 279 238 256 281 251 257 279 255 39 277 246 298 301 312 294 294 306 285 280 281 294 306 291 299 294
336 336 340 344 344 346 346 342 338 340 343 345 337 327 314 228 66 54 62 74 141 210 243 259 266 264 263 308 286 240 282 297 268 260 265 271 267 272 276 278 292 266 267 279 311
338 337 344 346 345 344 343 340 338 340 347 351 359 356 276 261 40 73 100 64 94 238 230 245 302 328 286 273 267 338 281 283 274 272 270 269 276 274 266 212 253 265 266 268 344
346 348 350 345 345 343 343 337 335 335 335 346 356 327 251 42 92 146 129 77 233 265 256 244 267 254 352 269 291 276 285 284 267 278 294 291 259 233 255 198 265 280 283 288 326
347 343 346 346 344 343 343 334 335 328 333 337 325 281 31 74 210 150 212 213 239 234 278 282 247 276 263 312 262 260 273 270 126 167 165 227 280 291 166 237 267 293 288 291 337
350 348 347 347 344 344 343 339 342 329 341 353 310 277 99 132 144 337 289 270 205 208 220 199 222 259 228 250 274 233 267 275 273 85 260 239 288 296 280 269 278 283 288 327 306
351 350 349 348 346 348 348 346 329 17 338 282 289 245 136 38 347 311 263 267 255 192 201 230 238 252 228 259 272 310 302 295 290 286 222 250 271 284 282 273 274 269 268 280 323
349 350 352 349 351 356 360 357 337 186 15 6 327 299 348 321 280 222 316 258 251 243 262 199 268 258 285 292 294 296 288 286 286 290 280 279 282 276 278 264 263 260 257 305 355
343 346 351 349 353 16 16 46 36 323 307 308 284 276 285 325 272 183 289 257 225 266 270 257 259 299 305 294 287 278 279 280 286 287 283 278 280 290 284 281 7 90 305 8 7
338 344 350 350 8 5 38 46 342 301 267 131 311 338 22 277 43 78 276 278 268 278 270 263 282 283 282 267 267 266 272 283 286 298 285 282 275 273 120 133 131 124 69 28 21
333 339 345 352 329 343 21 347 344 306 278 129 159 125 196 282 199 280 291 286 227 287 301 277 306 280 264 264 268 277 284 287 285 285 281 295 284 276 215 191 160 144 90 47 21
330 333 342 6 327 355 327 330 329 251 292 67 109 42 328 303 356 164 279 230 267 283 230 275 281 263 260 271 287 280 305 283 281 282 285 273 274 267 258 204 160 131 77 50 26
327 331 342 343 314 336 323 318 295 240 236 101 73 357 288 162 286 322 257 242 307 283 258 266 277 263 269 296 293 290 290 273 272 268 262 269 267 269 262 347 119 121 75 31 16
325 325 332 333 328 323 321 295 273 250 148 95 19 341 324 297 298 272 295 274 269 292 277 293 283 235 214 272 262 241 278 281 274 261 261 262 274 293 83 78 96 87 49 21 7
327 320 314 317 312 319 311 283 266 310 302 101 322 308 291 312 297 320 285 274 271 259 281 285 296 324 97 274 311 302 287 273 280 284 290 300 273 292 106 106 103 75 20 5 356
327 304 276 328 327 308 282 271 302 0 1 341 312 289 284 137 259 296 284 299 295 332 298 311 284 338 244 307 278 293 284 279 288 279 280 271 259 114 136 118 70 27 359 352 344
298 296 323 329 318 254 250 263 296 12 341 309 297 278 294 308 308 305 309 316 307 11 338 293 295 296 327 306 245 240 310 271 247 264 255 247 252 46 165 102 12 356 349 347 339
275 272 39 19 256 229 240 256 326 343 338 308 305 297 295 297 293 286 279 297 326 333 336 298 273 287 257 262 283 244 250 245 273 262 281 288 221 109 100 18 352 340 345 345 342
285 266 31 210 259 201 270 346 33 290 300 293 292 282 296 306 293 287 285 283 19 313 291 292 296 286 284 289 256 269 285 285 276 260 247 281 266 127 52 4 345 343 346 345 338
285 337 79 296 254 250 276 264 287 297 289 291 284 306 300 296 307 287 295 20 353 324 302 329 245 289 282 197 188 269 261 230 288 285 250 271 264 147 17 345 347 343 344 336 331
293 259 138 28 351 306 308 287 285 63 281 281 289 300 288 272 247 273 281 316 333 296 2 310 264 257 272 299 193 283 283 262 234 248 256 241 271 276 345 329 335 334 336 341 343
284 5 355 174 204 269 38 12 282 294 321 312 250 262 278 275 282 279 277 295 280 256 248 261 260 268 269 272 276 260 262 250 241 247 259 282 295 304 302 319 320 328 339 336 345
313 267 49 85 93 128 198 210 260 267 256 264 245 286 289 268 270 295 302 298 286 263 226 232 261 280 271 261 263 266 264 256 254 243 256 270 278 270 291 316 317 330 342 330 345
125 142 294 154 183 248 259 265 301 314 282 274 295 303 290 290 311 299 295 287 264 267 245 247 263 271 277 268 280 267 256 245 256 256 251 256 258 1 318 302 315 328 334 328 351